Regional Weather Roundup
Issued by NWS Glasgow, MT

Home | Current Version | Previous Version | Text Only | Print | Product List | Glossary On
Versions: 1 2 3 4 5 6 7 8 9 10 11 12 13 14 15 16 17 18 19 20 21 22 23 24 25 26 27
000
ASUS45 KGGW 281915
RWRGGW
HOURLY REGIONAL WEATHER ROUNDUP FOR NORTHEAST MONTANA
NATIONAL WEATHER SERVICE GLASGOW MONTANA
100 PM MDT WED JUN 28 2017

NOTE: "FAIR" INDICATES FEW OR NO CLOUDS BELOW 12,000 FEET WITH NO
SIGNIFICANT WEATHER AND/OR OBSTRUCTIONS TO VISISBILITY.

NORTHEAST MONTANA


CITY           SKY/WX    TMP DP  RH WIND       PRES   REMARKS
GLASGOW        MOSUNNY   69  42  37 E24G31    29.69F
PLENTYWOOD       N/A     75  34  22 NW3G12      N/A
WOLF POINT     CLOUDY    68  42  38 NE14      29.72F
JORDAN           N/A     81  49  32 SW13G20   29.67F
WINNETT          N/A     81  32  17 W10G20      N/A
SIDNEY         SUNNY     78  39  24 E6        29.72F HAZE
GLENDIVE       MOSUNNY   76  36  23 E6        29.74F
MALTA            N/A     79  46  31 SE7G20      N/A

FORT PECK REPORTS


CITY           SKY/WX    TMP DP  RH WIND       PRES   REMARKS
FORT PECK        N/A     63  49  60 NE17G25     N/A
THE PINES        N/A     67  45  45 CALM        N/A

SOUTHEAST MONTANA


CITY           SKY/WX    TMP DP  RH WIND       PRES   REMARKS
BILLINGS       PTSUNNY   79  39  23 NW10      29.74F
MILES CITY     SUNNY     80  48  32 SW12G17   29.71F
BAKER          SUNNY     79  33  19 VRB5      29.77F
LIVINGSTON     MOSUNNY   71  44  37 SW14G22   29.81F

CENTRAL MONTANA


CITY           SKY/WX    TMP DP  RH WIND       PRES   REMARKS
HAVRE          MOSUNNY   82  30  15 NW20G26   29.67F
LEWISTOWN      MOSUNNY   74  33  22 NW10      29.76F
GREAT FALLS    SUNNY     77  30  17 W24G31    29.75R
CUT BANK       MOSUNNY   76  26  15 W25G31    29.72F
HELENA         CLOUDY    77  30  17 W15G28    29.80F
BUTTE          CLOUDY    64  37  36 NW12      29.91R
BOZEMAN        LGT RAIN  65  50  58 CALM      29.84S

WESTERN MONTANA


CITY           SKY/WX    TMP DP  RH WIND       PRES   REMARKS
MISSOULA       MOSUNNY   77  38  24 MISG      29.81F
KALISPELL      NOT AVBL

NORTH DAKOTA


CITY           SKY/WX    TMP DP  RH WIND       PRES   REMARKS
WILLISTON      MOSUNNY   82  40  22 NE8       29.73S
DICKINSON      PTSUNNY   81  33  17 NW12      29.73S
MINOT          MOSUNNY   78  48  34 N18G25    29.67S
BISMARCK       SUNNY     77  47  34 NW16G23   29.70R

SOUTHERN SASKATCHEWAN


CITY           SKY/WX    TMP DP  RH WIND       PRES   REMARKS
REGINA         MOSUNNY   70  50  49 NW8       29.73R
MOOSE JAW      PTSUNNY   70  50  49 NE8       29.73R
ESTEVAN        MOSUNNY   75  48  38 NW12G20   29.70S
SWIFT CURRENT  MOSUNNY   70  43  37 SE8G17    29.71S





USA.gov is the U.S. government's official web portal to all federal, state and local government web resources and services.